Regional Weather Roundup
Issued by NWS

Home | Current Version | Previous Version | Text Only | Print | Product List | Glossary On
Versions: 1 2 3 4 5 6 7 8 9 10 11 12 13 14 15 16 17 18 19 20 21 22 23 24 25 26 27 28 29 30 31 32 33 34 35 36 37 38 39 40 41 42 43 44 45 46 47 48 49 50
000
ASUS45 KTFX 260019
RWRMT
MONTANA HOURLY WEATHER ROUNDUP
NATIONAL WEATHER SERVICE GREAT FALLS MT
619 PM MDT SAT OCT 25 2014

NOTE: "FAIR" INDICATES FEW OR NO CLOUDS BELOW 12000 FEET WITH NO
SIGNIFICANT WEATHER AND/OR OBSTRUCTIONS TO VISIBILITY.

* THESE STATIONS ARE NOT UNDER NWS QUALITY CONTROL. THEY DO NOT
   REPORT WEATHER SUCH AS PRECIPITATION OR FOG.

MTZ001>007-043-260100-
WEST OF THE DIVIDE
CITY           SKY/WX    TMP DP  RH WIND       PRES   REMARKS
KALISPELL      MOCLDY    52  43  72 CALM      29.66S
MISSOULA       PTCLDY    50  43  77 CALM      29.70F
BUTTE          CLOUDY    61  32  34 SE13      29.79F
MULLAN PASS    LGT RAIN  48  34  59 SW10G21   29.71F
* ESSEX        N/A       50  43  77 SE2        N/A
* LINCOLN      N/A       48  43  83 NE1        N/A
* LOOKOUT PASS N/A       44  42  93 SE1G6      N/A
* POLSON       N/A       50  44  80 SE2        N/A
* RONAN APT    PTCLDY    52  45  77 N/A        N/A
* SEELEY LAKE  N/A       48  41  77 N1         N/A
* THOMP F APT  MOCLDY    60  28  30 S14G23     N/A
$$

MTZ008-052>055-260100-
SOUTHWEST MONTANA
CITY           SKY/WX    TMP DP  RH WIND       PRES   REMARKS
BOZEMAN        CLOUDY    64  36  35 CALM      29.78F
DILLON         CLOUDY    64  28  26 S18G25    29.79F
W YELLOWSTONE  MOCLDY    57  27  32 SW13G22   29.95F
* THREE FORKS  CLOUDY    57  37  47 N/A        N/A
* BOULDER HILL N/A       62  24  23 SW16G22    N/A
* MONIDA PASS  N/A       57  29  34 S14G19     N/A
* RAYNOLDS PAS N/A       60  44  56 S26G39     N/A
* WHITEHALL    N/A       57  43  60 SE2        N/A
* WISE RIVER   N/A       53  41  64 W3G10      N/A
$$

MTZ009>010-012-014-046-048-049-054-260100-
EAST SLOPES AND CENTRAL MONTANA
CITY           SKY/WX    TMP DP  RH WIND       PRES   REMARKS
CUT BANK       CLOUDY    52  39  61 SE8       29.66F
GREAT FALLS    CLOUDY    52  43  72 SE8       29.67F
HELENA         CLOUDY    55  43  64 CALM      29.72F
MALMSTROM AFB  CLOUDY    52  43  72 SE5       29.69F
* CONRAD       CLOUDY    55  46  72 E5         N/A
* DEARBORN     N/A       58  45  62 S1         N/A
* EAST GLACIER N/A       47  41  80 NE1G6      N/A
* MONARCH      N/A       63  19  18 SW9G19     N/A
* PENDROY      N/A       52  41  66 S4         N/A
* ROGERS PASS  N/A       51  39  64 W1         N/A
* SAINT MARY   N/A       56  39  53 W3         N/A
* SWEET GRASS  N/A       54  36  51 S23G30     N/A
* WHITE SULPH  N/A       63  30  29 SE6G12     N/A
$$

MTZ011-013-016-021-035-040-045-047-050-051-260100-
NORTH CENTRAL MONTANA
CITY           SKY/WX    TMP DP  RH WIND       PRES   REMARKS
HAVRE          CLOUDY    61  37  41 E12       29.66F
LEWISTOWN      CLOUDY    57  43  60 SW6       29.75F
* FORT BENTON  CLOUDY    61  39  44 E9        29.67F
* CHESTER      N/A       57  38  49 SE3        N/A
* DENTON       N/A       63  34  34 N/A        N/A
* GEYSER       N/A       58  42  55 E2         N/A
* JUDITH GAP   N/A       54  37  53 W7         N/A
* LOMA         N/A       58  40  51 E9         N/A
$$

MTZ017>020-022>027-061-062-260100-
NORTHEAST MONTANA
CITY           SKY/WX    TMP DP  RH WIND       PRES   REMARKS
GLASGOW        MOCLDY    61  32  34 E16       29.77F
GLENDIVE       CLEAR     59  34  39 E12       29.84F
JORDAN         PTCLDY    63  34  34 E9        29.76F
SIDNEY         CLEAR     55  30  39 E9        29.88F
WOLF POINT     PTCLDY    59  34  39 E10       29.82F
* BEAVER HILL  N/A       60  33  36 SE17       N/A
* CIRCLE       N/A       62  37  40 E2G8       N/A
* LINDSAY DVD  N/A       59  33  38 E13        N/A
* NAVAJO       N/A       57  32  39 SE9        N/A
* SACO         N/A       60  36  41 E12        N/A
$$

MTZ028>042-056>058-260100-
SOUTHCENTRAL AND SOUTHEAST MONTANA
CITY           SKY/WX    TMP DP  RH WIND       PRES   REMARKS
BAKER          CLEAR     59  34  39 SE15      29.88F
BILLINGS       MOCLDY    59  36  42 N8        29.76F
LIVINGSTON     CLOUDY    72  25  17 SW20G33   29.77F
MILES CITY     CLEAR     68  36  31 SE15      29.76F
* LAUREL APT   MOCLDY    61  36  39 N/A        N/A
* ROUNDUP APT  CLOUDY    61  36  39 N/A        N/A
* ALZADA       N/A       59  36  42 E8         N/A
* HYSHAM       N/A       62  34  35 E5         N/A
* LAME DEER    N/A       66  33  29 SE9        N/A
* REED POINT   N/A       62  37  40 S2         N/A
* ROSCOE HILL  N/A       69  22  17 SE6        N/A
$$

REGIONAL REPORTS...DAKOTAS
CITY           SKY/WX    TMP DP  RH WIND       PRES   REMARKS
WILLISTON      CLEAR     57  30  36 SE8       29.92F
DICKINSON      CLEAR     54  32  43 SE13      29.93F
BEACH          N/A       57  32  39 SE13      29.89F
CROSBY         CLEAR     46  30  54 E9        29.94F
TIOGA          CLEAR     45  28  51 E8        29.98F
BISMARCK       CLEAR     48  28  46 E7        30.02F
GRAND FORKS    CLEAR     48  27  44 W7        30.02F
FARGO          CLEAR     52  23  32 CALM      30.05F
BUFFALO SD     CLEAR     55  30  39 SE13      29.87F
RAPID CITY     CLEAR     55  37  51 SE8       29.96F
$$

REGIONAL REPORTS...WYOMING/IDAHO/WASHINGTON
CITY           SKY/WX    TMP DP  RH WIND       PRES   REMARKS
GILLETTE       CLEAR     63  36  37 S15       29.88F
SHERIDAN       CLEAR     55  37  51 SW6       29.80F
CODY           CLEAR     70  23  17 W3        29.81F
YELLOWSTONE LA PTCLDY    55  23  29 VRB6      30.05F
SALMON         MOCLDY    46  41  83 CALM      29.74F
MULLAN PASS    LGT RAIN  48  34  59 SW10G21   29.71S
SAND POINT     PTCLDY    54  43  67 NE9       29.57F
SPOKANE        MOCLDY    64  43  47 S8        29.53F
$$

REGIONAL REPORTS...ALBERTA
CITY           SKY/WX    TMP DP  RH WIND       PRES   REMARKS
CALGARY        MOCLDY    46  30  54 S21       29.61F
LETHBRIDGE     PTCLDY    52  39  61 SE7       29.61F
MEDICINE HAT   MOCLDY    55  37  51 E6        29.64F
EDMONTON       MOCLDY    45  25  45 E20       29.65F
WATERTON GATE  N/A       45  36  71 SW2        N/A
CARDSTON       N/A       45  36  71 NW3        N/A
MILK RIVER     N/A       54  37  53 S16        N/A
$$

REGIONAL REPORTS...SASKATCHEWAN
CITY           SKY/WX    TMP DP  RH WIND       PRES   REMARKS
SWIFT CURRENT  MOCLDY    50  28  43 E18G25    29.77F
REGINA         MOCLDY    48  30  50 SE9       29.90F
VAL MARIE      N/A       54  36  51 E8         N/A
ASSINIBOIA     N/A       52  30  43 E12        N/A
CORONACH       N/A       54  34  47 E10        N/A

$$




USA.gov is the U.S. government's official web portal to all federal, state and local government web resources and services.